| time (UTC) | temp F | wind direction | speed knots | gust knots | rain 1hr in | rain 24hr in | rain mn in | humidity % | barometer mb |
| 20260506204608 | 84 | 213 | 2.6 | 2.6 | 0.00 | 0.06 | 0.06 | 79 | |
| 20260506204109 | 84 | 196 | 2.6 | 2.6 | 0.00 | 0.06 | 0.06 | 81 | |
| 20260506203609 | 84 | 196 | 3.5 | 5.2 | 0.00 | 0.06 | 0.06 | 81 | |
| 20260506203149 | 84 | 212 | 2.6 | 3.5 | 0.00 | 0.06 | 0.06 | 80 | |
| 20260506202609 | 83 | 192 | 2.6 | 4.3 | 0.00 | 0.06 | 0.06 | 80 | |
| 20260506202109 | 83 | 194 | 3.5 | 5.2 | 0.00 | 0.06 | 0.06 | 80 | |
| 20260506201609 | 83 | 187 | 3.5 | 4.3 | 0.00 | 0.06 | 0.06 | 82 | |
| 20260506201129 | 83 | 198 | 2.6 | 3.5 | 0.00 | 0.06 | 0.06 | 83 | |
| 20260506200609 | 83 | 195 | 5.2 | 6.1 | 0.00 | 0.06 | 0.06 | 83 | |
| 20260506200109 | 83 | 195 | 4.3 | 6.1 | 0.00 | 0.06 | 0.06 | 82 | |
| 20260506195609 | 84 | 181 | 4.3 | 5.2 | 0.00 | 0.06 | 0.06 | 81 | |
| 20260506195110 | 84 | 198 | 3.5 | 4.3 | 0.00 | 0.06 | 0.06 | 80 | |
| 20260506194610 | 84 | 182 | 3.5 | 3.5 | 0.00 | 0.06 | 0.06 | 80 | |
| 20260506194109 | 84 | 185 | 2.6 | 3.5 | 0.00 | 0.06 | 0.06 | 80 | |
| 20260506193610 | 84 | 150 | 7.0 | 7.8 | 0.00 | 0.06 | 0.06 | 79 | |
| 20260506193150 | 84 | 153 | 6.1 | 7.0 | 0.00 | 0.06 | 0.06 | 79 | |
| 20260506192610 | 83 | 191 | 3.5 | 3.5 | 0.00 | 0.06 | 0.06 | 80 | |
| 20260506192110 | 83 | 171 | 2.6 | 4.3 | 0.00 | 0.06 | 0.06 | 81 | |
| 20260506191610 | 83 | 169 | 2.6 | 2.6 | 0.00 | 0.06 | 0.06 | 81 | |
| 20260506191110 | 83 | 157 | 3.5 | 5.2 | 0.00 | 0.06 | 0.06 | 81 | |
| 20260506190610 | 84 | 160 | 1.7 | 2.6 | 0.00 | 0.06 | 0.06 | 81 | |
| 20260506190110 | 83 | 183 | 2.6 | 3.5 | 0.00 | 0.06 | 0.06 | 81 | |
| 20260506185610 | 83 | 174 | 4.3 | 8.7 | 0.00 | 0.06 | 0.06 | 81 | |
| 20260506185150 | 83 | 166 | 3.5 | 4.3 | 0.00 | 0.06 | 0.06 | 82 | |
| 20260506184631 | 83 | 136 | 3.5 | 3.5 | 0.00 | 0.06 | 0.06 | 82 | |
| 20260506184111 | 83 | 109 | 2.6 | 2.6 | 0.00 | 0.06 | 0.06 | 82 | |
| 20260506183611 | 83 | 99 | 2.6 | 3.5 | 0.00 | 0.06 | 0.06 | 82 | |
| 20260506183111 | 83 | 112 | 1.7 | 2.6 | 0.00 | 0.06 | 0.06 | 82 | |
| 20260506182611 | 83 | 81 | 2.6 | 2.6 | 0.00 | 0.06 | 0.06 | 82 | |
| 20260506182111 | 82 | 176 | 1.7 | 2.6 | 0.00 | 0.06 | 0.06 | 83 | |
| 20260506181611 | 82 | 212 | 0.9 | 2.6 | 0.00 | 0.06 | 0.06 | 84 | |
| 20260506181111 | 81 | 66 | 1.7 | 2.6 | 0.00 | 0.06 | 0.06 | 85 | |
| 20260506180611 | 81 | 134 | 1.7 | 2.6 | 0.00 | 0.06 | 0.06 | 86 | |
| 20260506180112 | 81 | 139 | 0.9 | 1.7 | 0.00 | 0.06 | 0.06 | 87 | |
| 20260506175633 | 81 | 67 | 1.7 | 3.5 | 0.00 | 0.06 | 0.06 | 87 | |
| 20260506175132 | 80 | 39 | 0.9 | 2.6 | 0.00 | 0.06 | 0.06 | 88 | |
| 20260506174632 | 80 | 168 | 1.7 | 1.7 | 0.00 | 0.06 | 0.06 | 88 | |
| 20260506174112 | 80 | 157 | 0.9 | 1.7 | 0.00 | 0.06 | 0.06 | 88 | |
| 20260506173612 | 80 | 172 | 1.7 | 1.7 | 0.00 | 0.06 | 0.06 | 89 | |
| 20260506173112 | 80 | 97 | 1.7 | 1.7 | 0.00 | 0.06 | 0.06 | 89 | |
| 20260506172613 | 79 | 89 | 1.7 | 2.6 | 0.00 | 0.06 | 0.06 | 90 | |
| 20260506172113 | 79 | 65 | 1.7 | 3.5 | 0.01 | 0.06 | 0.06 | 91 | |
| 20260506171612 | 79 | 102 | 2.6 | 3.5 | 0.06 | 0.06 | 0.06 | 91 | |
| 20260506171112 | 79 | 63 | 2.6 | 2.6 | 0.06 | 0.06 | 0.06 | 91 | |
| 20260506170612 | 79 | 96 | 1.7 | 2.6 | 0.06 | 0.06 | 0.06 | 92 | |
| 20260506170152 | 79 | 96 | 1.7 | 2.6 | 0.06 | 0.06 | 0.06 | 92 | |
| 20260506165612 | 79 | 162 | 2.6 | 2.6 | 0.06 | 0.06 | 0.06 | 92 | |
| 20260506165113 | 79 | 163 | 1.7 | 1.7 | 0.06 | 0.06 | 0.06 | 93 | |
| 20260506164613 | 78 | 127 | 1.7 | 1.7 | 0.06 | 0.06 | 0.06 | 94 | |
| 20260506164112 | 78 | 104 | 1.7 | 2.6 | 0.06 | 0.06 | 0.06 | 95 | |
| 20260506163612 | 78 | 89 | 1.7 | 1.7 | 0.06 | 0.06 | 0.06 | 94 | |
| 20260506163113 | 78 | 165 | 1.7 | 2.6 | 0.06 | 0.06 | 0.06 | 93 | |
| 20260506162653 | 79 | 179 | 2.6 | 3.5 | 0.06 | 0.06 | 0.06 | 91 | |
| 20260506162133 | 79 | 134 | 3.5 | 3.5 | 0.05 | 0.05 | 0.05 | 89 | |
| 20260506161613 | 79 | 135 | 2.6 | 3.5 | 0.00 | 0.00 | 0.00 | 88 | |
| 20260506161113 | 79 | 124 | 2.6 | 3.5 | 0.00 | 0.00 | 0.00 | 88 | |
| 20260506160613 | 79 | 103 | 2.6 | 2.6 | 0.00 | 0.00 | 0.00 | 88 | |
| 20260506160113 | 80 | 94 | 3.5 | 4.3 | 0.00 | 0.00 | 0.00 | 87 | |
| 20260506155613 | 80 | 79 | 2.6 | 3.5 | 0.00 | 0.00 | 0.00 | 87 | |
| 20260506155113 | 79 | 101 | 2.6 | 4.3 | 0.00 | 0.00 | 0.00 | 87 | |
| 20260506154613 | 79 | 100 | 2.6 | 4.3 | 0.00 | 0.00 | 0.00 | 88 | |
| 20260506154113 | 79 | 129 | 2.6 | 2.6 | 0.00 | 0.00 | 0.00 | 88 | |
| 20260506153614 | 79 | 115 | 2.6 | 2.6 | 0.00 | 0.00 | 0.00 | 88 | |
| 20260506153113 | 79 | 122 | 2.6 | 2.6 | 0.00 | 0.00 | 0.00 | 89 | |
| 20260506152614 | 79 | 105 | 2.6 | 3.5 | 0.00 | 0.00 | 0.00 | 89 | |
| 20260506152114 | 79 | 105 | 1.7 | 3.5 | 0.00 | 0.00 | 0.00 | 90 | |
| 20260506151613 | 79 | 122 | 2.6 | 3.5 | 0.00 | 0.00 | 0.00 | 90 | |
| 20260506151134 | 79 | 28 | 2.6 | 3.5 | 0.00 | 0.00 | 0.00 | 90 | |
| 20260506150614 | 78 | 104 | 2.6 | 4.3 | 0.00 | 0.00 | 0.00 | 91 | |
| 20260506150114 | 78 | 100 | 3.5 | 4.3 | 0.00 | 0.00 | 0.00 | 91 | |
| 20260506145614 | 78 | 102 | 2.6 | 2.6 | 0.00 | 0.00 | 0.00 | 92 | |
| 20260506145114 | 78 | 123 | 2.6 | 3.5 | 0.00 | 0.00 | 0.00 | 92 | |
| 20260506144755 | 78 | 99 | 2.6 | 4.3 | 0.00 | 0.00 | 0.00 | 92 | |
| 20260506144155 | 78 | 124 | 3.5 | 3.5 | 0.00 | 0.00 | 0.00 | 93 | |
| 20260506143634 | 78 | 124 | 2.6 | 3.5 | 0.00 | 0.00 | 0.00 | 93 | |
| 20260506143114 | 77 | 150 | 3.5 | 4.3 | 0.00 | 0.00 | 0.00 | 94 | |
| 20260506142615 | 77 | 88 | 2.6 | 2.6 | 0.00 | 0.00 | 0.00 | 94 | |
| 20260506142115 | 77 | 110 | 2.6 | 2.6 | 0.00 | 0.00 | 0.00 | 94 | |
| 20260506141655 | 77 | 100 | 2.6 | 2.6 | 0.00 | 0.00 | 0.00 | 95 | |
| 20260506141115 | 77 | 103 | 2.6 | 3.5 | 0.00 | 0.00 | 0.00 | 95 | |
| 20260506140615 | 77 | 103 | 2.6 | 2.6 | 0.00 | 0.00 | 0.00 | 95 | |
| 20260506140116 | 77 | 53 | 2.6 | 3.5 | 0.00 | 0.00 | 0.00 | 96 | |
| 20260506135615 | 77 | 96 | 2.6 | 3.5 | 0.00 | 0.00 | 0.00 | 96 | |
| 20260506135115 | 76 | 124 | 1.7 | 3.5 | 0.00 | 0.00 | 0.00 | 96 | |
| 20260506134635 | 76 | 160 | 1.7 | 2.6 | 0.00 | 0.00 | 0.00 | 97 | |
| 20260506134115 | 76 | 118 | 2.6 | 3.5 | 0.00 | 0.00 | 0.00 | 97 | |
| 20260506133615 | 76 | 148 | 1.7 | 2.6 | 0.00 | 0.00 | 0.00 | 97 | |
| 20260506133115 | 76 | 112 | 1.7 | 1.7 | 0.00 | 0.00 | 0.00 | 98 | |
| 20260506132635 | 76 | 9 | 1.7 | 2.6 | 0.00 | 0.00 | 0.00 | 98 | |
| 20260506132135 | 75 | 40 | 1.7 | 2.6 | 0.00 | 0.00 | 0.00 | 98 | |
| 20260506131636 | 75 | 83 | 1.7 | 1.7 | 0.00 | 0.00 | 0.00 | 98 | |
| 20260506131115 | 75 | 170 | 2.6 | 3.5 | 0.00 | 0.00 | 0.00 | 98 | |
| 20260506130616 | 75 | 117 | 1.7 | 2.6 | 0.00 | 0.00 | 0.00 | 98 | |
| 20260506130116 | 75 | 65 | 1.7 | 1.7 | 0.00 | 0.00 | 0.00 | 98 | |
| 20260506125616 | 75 | 148 | 1.7 | 2.6 | 0.00 | 0.00 | 0.00 | 98 | |
| 20260506125136 | 75 | 130 | 1.7 | 1.7 | 0.00 | 0.00 | 0.00 | 99 | |
| 20260506124616 | 75 | 107 | 2.6 | 2.6 | 0.00 | 0.00 | 0.00 | 99 | |
| 20260506124116 | 75 | 102 | 2.6 | 3.5 | 0.00 | 0.00 | 0.00 | 99 | |
| 20260506123636 | 75 | 51 | 1.7 | 2.6 | 0.00 | 0.00 | 0.00 | 98 | |
| 20260506123136 | 75 | 55 | 1.7 | 2.6 | 0.00 | 0.00 | 0.00 | 98 | |
| 20260506122616 | 75 | 2 | 2.6 | 4.3 | 0.00 | 0.00 | 0.00 | 98 | |
| 20260506122117 | 75 | 240 | 2.6 | 3.5 | 0.00 | 0.00 | 0.00 | 98 | |
| 20260506121617 | 75 | 124 | 1.7 | 2.6 | 0.00 | 0.00 | 0.00 | 98 | |
| 20260506121138 | 75 | 260 | 2.6 | 3.5 | 0.00 | 0.00 | 0.00 | 98 | |
| 20260506120617 | 75 | 304 | 2.6 | 3.5 | 0.00 | 0.00 | 0.00 | 98 | |
| 20260506120116 | 75 | 306 | 1.7 | 1.7 | 0.00 | 0.00 | 0.00 | 98 | |
| 20260506115518 | 75 | 272 | 1.7 | 2.6 | 0.00 | 0.00 | 0.00 | 98 | |
| 20260506115057 | 75 | 212 | 2.6 | 4.3 | 0.00 | 0.00 | 0.00 | 98 | |
| 20260506114516 | 75 | 217 | 2.6 | 3.5 | 0.00 | 0.00 | 0.00 | 98 | |
| 20260506114016 | 75 | 239 | 3.5 | 4.3 | 0.00 | 0.00 | 0.00 | 98 | |
| 20260506113517 | 75 | 156 | 2.6 | 3.5 | 0.00 | 0.00 | 0.00 | 98 | |
| 20260506113017 | 75 | 189 | 2.6 | 3.5 | 0.00 | 0.00 | 0.00 | 98 | |
| 20260506112517 | 75 | 180 | 3.5 | 4.3 | 0.00 | 0.00 | 0.00 | 98 | |
| 20260506112017 | 75 | 225 | 2.6 | 4.3 | 0.00 | 0.00 | 0.00 | 98 | |
| 20260506111617 | 75 | 200 | 3.5 | 4.3 | 0.00 | 0.00 | 0.00 | 98 | |
| 20260506111117 | 75 | 222 | 3.5 | 4.3 | 0.00 | 0.00 | 0.00 | 98 | |
| 20260506110617 | 75 | 204 | 2.6 | 3.5 | 0.00 | 0.00 | 0.00 | 98 | |
| 20260506110017 | 75 | 189 | 2.6 | 3.5 | 0.00 | 0.00 | 0.00 | 98 | |
| 20260506105518 | 74 | 215 | 2.6 | 3.5 | 0.00 | 0.00 | 0.00 | 98 | |
| 20260506105017 | 75 | 157 | 1.7 | 2.6 | 0.00 | 0.00 | 0.00 | 98 | |
| 20260506104537 | 75 | 259 | 1.7 | 2.6 | 0.00 | 0.00 | 0.00 | 98 | |
| 20260506104017 | 75 | 231 | 2.6 | 2.6 | 0.00 | 0.00 | 0.00 | 98 | |
| 20260506103518 | 75 | 183 | 2.6 | 2.6 | 0.00 | 0.00 | 0.00 | 98 | |
| 20260506103058 | 75 | 212 | 2.6 | 4.3 | 0.00 | 0.00 | 0.00 | 98 | |
| 20260506102518 | 75 | 169 | 3.5 | 5.2 | 0.00 | 0.00 | 0.00 | 97 | |
| 20260506102018 | 75 | 159 | 2.6 | 3.5 | 0.00 | 0.00 | 0.00 | 97 | |
| 20260506101518 | 75 | 184 | 4.3 | 4.3 | 0.00 | 0.00 | 0.00 | 97 | |
| 20260506101018 | 75 | 162 | 3.5 | 4.3 | 0.00 | 0.00 | 0.00 | 97 | |
| 20260506100518 | 75 | 171 | 3.5 | 4.3 | 0.00 | 0.00 | 0.00 | 97 | |
| 20260506100018 | 75 | 160 | 4.3 | 5.2 | 0.00 | 0.00 | 0.00 | 97 | |
| 20260506095518 | 75 | 162 | 3.5 | 4.3 | 0.00 | 0.00 | 0.00 | 97 | |
| 20260506095019 | 75 | 159 | 3.5 | 4.3 | 0.00 | 0.00 | 0.00 | 97 | |
| 20260506094518 | 75 | 174 | 3.5 | 3.5 | 0.00 | 0.00 | 0.00 | 97 | |
| 20260506094018 | 75 | 148 | 2.6 | 3.5 | 0.00 | 0.00 | 0.00 | 97 | |
| 20260506093539 | 75 | 167 | 3.5 | 5.2 | 0.00 | 0.00 | 0.00 | 97 | |
| 20260506093018 | 75 | 159 | 3.5 | 5.2 | 0.00 | 0.00 | 0.00 | 96 | |
| 20260506092519 | 75 | 160 | 3.5 | 4.3 | 0.00 | 0.00 | 0.00 | 96 | |
| 20260506092019 | 75 | 154 | 3.5 | 3.5 | 0.00 | 0.00 | 0.00 | 96 | |
| 20260506091519 | 75 | 174 | 3.5 | 3.5 | 0.00 | 0.00 | 0.00 | 96 | |
| 20260506091019 | 75 | 159 | 3.5 | 4.3 | 0.00 | 0.00 | 0.00 | 96 | |
| 20260506090519 | 75 | 164 | 3.5 | 5.2 | 0.00 | 0.00 | 0.00 | 96 | |
| 20260506090019 | 75 | 177 | 2.6 | 3.5 | 0.00 | 0.00 | 0.00 | 96 | |
| 20260506085539 | 75 | 167 | 2.6 | 3.5 | 0.00 | 0.00 | 0.00 | 96 | |
| 20260506085019 | 75 | 184 | 2.6 | 3.5 | 0.00 | 0.00 | 0.00 | 96 | |
| 20260506084521 | 75 | 156 | 3.5 | 4.3 | 0.00 | 0.00 | 0.00 | 96 | |
| 20260506084040 | 75 | 154 | 3.5 | 5.2 | 0.00 | 0.00 | 0.00 | 96 | |
| 20260506083520 | 75 | 108 | 1.7 | 2.6 | 0.00 | 0.00 | 0.00 | 96 | |
| 20260506083021 | 75 | 122 | 1.7 | 2.6 | 0.00 | 0.00 | 0.00 | 96 | |
| 20260506082521 | 75 | 158 | 2.6 | 3.5 | 0.00 | 0.00 | 0.00 | 96 | |
| 20260506082020 | 75 | 139 | 1.7 | 2.6 | 0.00 | 0.00 | 0.00 | 96 | |
| 20260506081520 | 75 | 149 | 2.6 | 3.5 | 0.00 | 0.00 | 0.00 | 96 | |
| 20260506081022 | 75 | 178 | 2.6 | 3.5 | 0.00 | 0.00 | 0.00 | 96 | |
| 20260506080520 | 76 | 163 | 1.7 | 2.6 | 0.00 | 0.00 | 0.00 | 96 | |
| 20260506073021 | 75 | 164 | 2.6 | 3.5 | 0.00 | 0.00 | 0.00 | 97 | |
| 20260506072521 | 75 | 169 | 2.6 | 3.5 | 0.00 | 0.00 | 0.00 | 97 | |
| 20260506072021 | 75 | 157 | 2.6 | 3.5 | 0.00 | 0.00 | 0.00 | 97 | |
| 20260506071521 | 75 | 184 | 2.6 | 2.6 | 0.00 | 0.00 | 0.00 | 97 | |
| 20260506071021 | 75 | 152 | 1.7 | 3.5 | 0.00 | 0.00 | 0.00 | 97 | |
| 20260506070521 | 75 | 149 | 2.6 | 4.3 | 0.00 | 0.00 | 0.00 | 96 | |
| 20260506062042 | 76 | 177 | 2.6 | 4.3 | 0.00 | 0.00 | 0.00 | 96 | |
| 20260506061522 | 76 | 157 | 3.5 | 3.5 | 0.00 | 0.00 | 0.00 | 96 | |
| 20260506061022 | 76 | 178 | 2.6 | 2.6 | 0.00 | 0.00 | 0.00 | 96 | |
| 20260506060522 | 76 | 186 | 1.7 | 2.6 | 0.00 | 0.00 | 0.00 | 96 | |
| 20260506051023 | 76 | 137 | 1.7 | 2.6 | 0.00 | 0.00 | 0.00 | 95 | |
| 20260506050523 | 76 | 130 | 1.7 | 2.6 | 0.00 | 0.00 | 0.00 | 94 | |
| 20260506050103 | 76 | 168 | 1.7 | 2.6 | 0.00 | 0.00 | 0.00 | 94 | |
| 20260506045023 | 76 | 118 | 1.7 | 2.6 | 0.00 | 0.00 | 0.00 | 94 | |
| 20260506044523 | 76 | 141 | 1.7 | 2.6 | 0.00 | 0.00 | 0.00 | 94 | |
| 20260506044023 | 76 | 165 | 2.6 | 3.5 | 0.00 | 0.00 | 0.00 | 93 | |
| 20260506043523 | 76 | 180 | 1.7 | 3.5 | 0.00 | 0.00 | 0.00 | 93 | |
| 20260506043043 | 76 | 148 | 1.7 | 1.7 | 0.00 | 0.00 | 0.00 | 93 | |
| 20260506042543 | 76 | 154 | 1.7 | 2.6 | 0.00 | 0.00 | 0.00 | 93 | |
| 20260506042023 | 77 | 173 | 1.7 | 2.6 | 0.00 | 0.00 | 0.00 | 92 | |
| 20260506041524 | 77 | 176 | 2.6 | 4.3 | 0.00 | 0.00 | 0.00 | 92 | |
| 20260506041023 | 77 | 135 | 2.6 | 4.3 | 0.00 | 0.00 | 0.00 | 91 | |
| 20260506040523 | 77 | 125 | 1.7 | 1.7 | 0.00 | 0.00 | 0.00 | 91 | |
| 20260506040024 | 77 | 133 | 2.6 | 2.6 | 0.00 | 0.00 | 0.00 | 91 | |
| 20260506035624 | 77 | 134 | 1.7 | 2.6 | 0.00 | 0.00 | 0.00 | 90 | |
| 20260506035024 | 77 | 133 | 2.6 | 2.6 | 0.00 | 0.00 | 0.00 | 90 | |
| 20260506034524 | 77 | 119 | 1.7 | 2.6 | 0.00 | 0.00 | 0.00 | 89 | |
| 20260506034044 | 77 | 147 | 2.6 | 2.6 | 0.00 | 0.00 | 0.00 | 89 | |
| 20260506033524 | 77 | 146 | 3.5 | 3.5 | 0.00 | 0.00 | 0.00 | 89 | |
| 20260506033024 | 77 | 148 | 2.6 | 3.5 | 0.00 | 0.00 | 0.00 | 89 | |
| 20260506032544 | 77 | 146 | 2.6 | 3.5 | 0.00 | 0.00 | 0.00 | 89 | |
| 20260506032024 | 77 | 149 | 2.6 | 3.5 | 0.00 | 0.00 | 0.00 | 89 | |
| 20260506031544 | 77 | 148 | 2.6 | 3.5 | 0.00 | 0.00 | 0.00 | 89 | |
| 20260506031025 | 77 | 148 | 2.6 | 3.5 | 0.00 | 0.00 | 0.00 | 89 | |
| 20260506030525 | 77 | 158 | 5.2 | 5.2 | 0.00 | 0.00 | 0.00 | 89 | |
| 20260506030025 | 78 | 167 | 4.3 | 5.2 | 0.00 | 0.00 | 0.00 | 89 | |
| 20260506025525 | 78 | 173 | 3.5 | 5.2 | 0.00 | 0.00 | 0.00 | 89 | |
| 20260506025025 | 78 | 182 | 4.3 | 5.2 | 0.00 | 0.00 | 0.00 | 89 | |
| 20260506024525 | 78 | 177 | 3.5 | 3.5 | 0.00 | 0.00 | 0.00 | 88 | |
| 20260506024025 | 78 | 183 | 3.5 | 4.3 | 0.00 | 0.00 | 0.00 | 88 | |
| 20260506023545 | 78 | 166 | 4.3 | 6.1 | 0.00 | 0.00 | 0.00 | 87 | |
| 20260506023046 | 78 | 170 | 3.5 | 4.3 | 0.00 | 0.00 | 0.00 | 87 | |
| 20260506022525 | 78 | 190 | 3.5 | 4.3 | 0.00 | 0.00 | 0.00 | 87 | |
| 20260506022025 | 78 | 183 | 3.5 | 4.3 | 0.00 | 0.00 | 0.00 | 87 | |
| 20260506021525 | 78 | 187 | 4.3 | 5.2 | 0.00 | 0.00 | 0.00 | 87 | |
| 20260506021045 | 78 | 154 | 4.3 | 5.2 | 0.00 | 0.00 | 0.00 | 86 | |
| 20260506020525 | 78 | 176 | 3.5 | 4.3 | 0.00 | 0.00 | 0.00 | 86 | |
| 20260506020025 | 78 | 191 | 3.5 | 4.3 | 0.00 | 0.00 | 0.00 | 86 | |
| 20260506015526 | 78 | 189 | 4.3 | 5.2 | 0.00 | 0.00 | 0.00 | 86 | |
| 20260506015045 | 79 | 183 | 3.5 | 6.1 | 0.00 | 0.00 | 0.00 | 86 | |
| 20260506014526 | 79 | 214 | 3.5 | 4.3 | 0.00 | 0.00 | 0.00 | 85 | |
| 20260506014025 | 79 | 176 | 3.5 | 5.2 | 0.00 | 0.00 | 0.00 | 85 | |
| 20260506013525 | 79 | 188 | 3.5 | 4.3 | 0.00 | 0.00 | 0.00 | 85 | |
| 20260506013046 | 79 | 199 | 4.3 | 4.3 | 0.00 | 0.00 | 0.00 | 85 | |
| 20260506012546 | 79 | 187 | 3.5 | 4.3 | 0.00 | 0.00 | 0.00 | 84 | |
| 20260506012026 | 79 | 157 | 5.2 | 6.1 | 0.00 | 0.00 | 0.00 | 84 | |
| 20260506011526 | 79 | 156 | 4.3 | 5.2 | 0.00 | 0.00 | 0.00 | 84 | |
| 20260506011106 | 79 | 194 | 4.3 | 4.3 | 0.00 | 0.00 | 0.00 | 84 | |
| 20260506010546 | 79 | 236 | 4.3 | 5.2 | 0.00 | 0.00 | 0.00 | 83 | |
| 20260506010026 | 79 | 243 | 5.2 | 6.1 | 0.00 | 0.00 | 0.00 | 83 | |
| 20260506005526 | 79 | 243 | 5.2 | 6.1 | 0.00 | 0.00 | 0.00 | 83 | |
| 20260506005026 | 79 | 238 | 5.2 | 6.1 | 0.00 | 0.00 | 0.00 | 82 | |
| 20260506004527 | 80 | 238 | 4.3 | 5.2 | 0.00 | 0.00 | 0.00 | 82 | |
| 20260506004026 | 80 | 237 | 4.3 | 5.2 | 0.00 | 0.00 | 0.00 | 82 | |
| 20260506003527 | 80 | 240 | 5.2 | 5.2 | 0.00 | 0.00 | 0.00 | 82 | |
| 20260506003027 | 80 | 245 | 5.2 | 6.1 | 0.00 | 0.00 | 0.00 | 81 | |
| 20260506002607 | 80 | 240 | 5.2 | 6.1 | 0.00 | 0.00 | 0.00 | 81 | |
| 20260506002048 | 80 | 228 | 5.2 | 5.2 | 0.00 | 0.00 | 0.00 | 81 | |
| 20260506001527 | 80 | 180 | 4.3 | 5.2 | 0.00 | 0.00 | 0.00 | 81 | |
| 20260506001027 | 80 | 143 | 7.8 | 9.6 | 0.00 | 0.00 | 0.00 | 81 | |
| 20260506000527 | 80 | 130 | 8.7 | 9.6 | 0.00 | 0.00 | 0.00 | 81 | |
| 20260506000027 | 80 | 131 | 5.2 | 7.8 | 0.00 | 0.00 | 0.00 | 81 | |
| 20260505235527 | 80 | 129 | 4.3 | 5.2 | 0.00 | 0.00 | 0.00 | 81 | |
| 20260505235028 | 80 | 131 | 5.2 | 7.8 | 0.00 | 0.00 | 0.00 | 81 | |
| 20260505234527 | 80 | 136 | 9.6 | 11.3 | 0.00 | 0.00 | 0.00 | 81 | |
| 20260505234028 | 80 | 134 | 10.4 | 12.2 | 0.00 | 0.00 | 0.00 | 81 | |
| 20260505233608 | 81 | 49 | 4.3 | 6.1 | 0.00 | 0.00 | 0.00 | 81 | |
| 20260505233028 | 81 | 324 | 3.5 | 3.5 | 0.00 | 0.00 | 0.00 | 80 | |
| 20260505232528 | 81 | 292 | 3.5 | 4.3 | 0.00 | 0.00 | 0.00 | 80 | |
| 20260505232028 | 81 | 286 | 3.5 | 3.5 | 0.00 | 0.00 | 0.00 | 80 | |
| 20260505231528 | 81 | 292 | 3.5 | 3.5 | 0.00 | 0.00 | 0.00 | 80 | |
| 20260505231048 | 81 | 290 | 3.5 | 3.5 | 0.00 | 0.00 | 0.00 | 80 | |
| 20260505230528 | 81 | 289 | 3.5 | 3.5 | 0.00 | 0.00 | 0.00 | 80 | |
| 20260505230028 | 81 | 272 | 3.5 | 3.5 | 0.00 | 0.00 | 0.00 | 80 | |
| 20260505225528 | 81 | 238 | 3.5 | 4.3 | 0.00 | 0.00 | 0.00 | 80 | |
| 20260505225028 | 82 | 202 | 4.3 | 5.2 | 0.00 | 0.00 | 0.00 | 79 | |
| 20260505224529 | 82 | 197 | 5.2 | 6.1 | 0.00 | 0.00 | 0.00 | 77 | |
| 20260505224028 | 82 | 198 | 5.2 | 6.1 | 0.00 | 0.00 | 0.00 | 77 | |
| 20260505223529 | 82 | 170 | 3.5 | 4.3 | 0.00 | 0.00 | 0.00 | 77 | |
| 20260505223029 | 82 | 191 | 3.5 | 6.1 | 0.00 | 0.00 | 0.00 | 77 | |
| 20260505222549 | 82 | 209 | 6.1 | 7.0 | 0.00 | 0.00 | 0.00 | 77 | |
| 20260505222029 | 82 | 209 | 6.1 | 7.0 | 0.00 | 0.00 | 0.00 | 77 | |
| 20260505221529 | 82 | 203 | 5.2 | 6.1 | 0.00 | 0.00 | 0.00 | 76 | |
| 20260505221049 | 82 | 213 | 6.1 | 6.1 | 0.00 | 0.00 | 0.00 | 77 | |
| 20260505220529 | 82 | 213 | 5.2 | 6.1 | 0.00 | 0.00 | 0.00 | 77 | |
| 20260505220029 | 82 | 204 | 4.3 | 5.2 | 0.00 | 0.00 | 0.00 | 78 | |
| 20260505215549 | 82 | 179 | 5.2 | 6.1 | 0.00 | 0.00 | 0.00 | 78 | |
| 20260505215030 | 82 | 214 | 6.1 | 7.8 | 0.00 | 0.00 | 0.00 | 77 | |
| 20260505214530 | 82 | 204 | 3.5 | 4.3 | 0.00 | 0.00 | 0.00 | 77 | |
| 20260505214029 | 82 | 188 | 6.1 | 7.0 | 0.00 | 0.00 | 0.00 | 77 | |
| 20260505213530 | 82 | 188 | 6.1 | 6.1 | 0.00 | 0.00 | 0.00 | 77 | |
| 20260505213030 | 82 | 188 | 5.2 | 7.0 | 0.00 | 0.00 | 0.00 | 77 | |
| 20260505212530 | 82 | 189 | 7.0 | 7.0 | 0.00 | 0.00 | 0.00 | 77 | |
| 20260505212030 | 82 | 189 | 7.0 | 7.0 | 0.00 | 0.00 | 0.00 | 78 | |
| 20260505211530 | 82 | 191 | 6.1 | 7.0 | 0.00 | 0.00 | 0.00 | 78 | |
| 20260505211030 | 82 | 191 | 6.1 | 6.1 | 0.00 | 0.00 | 0.00 | 78 | |
| 20260505210531 | 82 | 190 | 6.1 | 7.0 | 0.00 | 0.00 | 0.00 | 77 | |
| 20260505210030 | 82 | 195 | 6.1 | 7.8 | 0.00 | 0.00 | 0.00 | 77 | |
| 20260505205531 | 82 | 197 | 7.0 | 7.8 | 0.00 | 0.00 | 0.00 | 78 | |
| 20260505205030 | 82 | 197 | 7.0 | 7.0 | 0.00 | 0.00 | 0.00 | 78 |